User: anonymous   Login
Location: Unspecified
(0.0000°N, 0.0000°E)
Time: 21:44:03
(UTC+00:00)
Language:

PAYLOAD F - Orbit

View from above orbital plane
View from above orbital plane
View from above satellite
View from above satellite

Ground track
Ground track

The orbit data is extracted from the following two-line orbital elements,

1 27060U 01058F   17117.72908969 +.00000005 +00000-0 -31879-4 0  9994
2 27060 082.5435 179.2309 0007347 322.3756 037.6822 12.62992330706844
Epoch (UTC): 27 April 2017 17:29:53
Eccentricity: 0.0007347
inclination: 82.5435°
perigee height: 1405 km
apogee height: 1416 km
right ascension of ascending node: 179.2309°
argument of perigee: 322.3756°
revolutions per day: 12.62992330
mean anomaly at epoch: 37.6822°
orbit number at epoch: 70684

The dashed part of the orbit path shows where the satellite is in the earth's shadow,  

DLR